Home   Weather   Thomasville   Past weeks
Flag for USA

Past Weather in Thomasville, North Carolina, USA — Yesterday and Last 2 Weeks

Now
80 °F

Clear.


Feels Like: 82 °F
Forecast: 89 / 72 °F
Wind: 3 mph from Southwest

Location: Davidson County Airport

Current Time: Jul 17, 2019 at 11:03:23 pm

Latest Report: Jul 17, 2019 at 10:15 pm


Visibility: 10 mi

Pressure: 30.02 "Hg

Humidity: 69%

Dew Point: 68 °F

Location of ThomasvilleLocation

Past Weather in Thomasville — Graph

°F

Thomasville Temperature Yesterday

Maximum temperature yesterday: 92 °F (at 2:55 pm)
Minimum temperature yesterday: 73 °F (at 3:55 am)
Average temperature yesterday: 82 °F

High & Low Weather Summary for the Past Weeks

 TemperatureHumidityPressure
High94 °F (Jul 17, 3:35 pm)100% (Jul 3, 1:00 am)30.17 "Hg (Jul 3, 1:00 am)
Low68 °F (Jul 15, 6:35 am)40% (Jul 14, 4:35 pm)29.83 "Hg (Jul 7, 5:35 pm)
Average79 °F85%30.02 "Hg
* Reported Jul 2 9:00 pm — Jul 17 9:55 pm, Thomasville. Weather by CustomWeather, © 2019

Note: Actual official high and low records may vary slightly from our data, if they occured in-between our weather recording intervals... More about our weather records

Advertising

Thomasville Weather History for the Previous 24 Hours

Scroll right to see more
 ConditionsComfort  
Time TempWeatherWind HumidityBarometerVisibility
9:55 pm
Wed, Jul 17
80 °FClear.No wind66%30.01 "Hg10 mi
9:35 pm81 °FClear.5 mph63%30.00 "Hg10 mi
9:15 pm82 °FClear.5 mph60%30.00 "Hg10 mi
8:55 pm82 °FClear.9 mph60%30.00 "Hg10 mi
8:15 pm83 °FSunny.8 mph62%29.99 "Hg10 mi
7:55 pm83 °FSunny.7 mph62%29.99 "Hg10 mi
7:35 pm84 °FSunny.3 mph60%29.99 "Hg10 mi
7:15 pm84 °FSunny.No wind61%29.98 "Hg10 mi
6:55 pm85 °FSunny.3 mph57%29.99 "Hg10 mi
6:35 pm86 °FSunny.5 mph55%29.99 "Hg10 mi
6:15 pm88 °FSunny.5 mph56%29.99 "Hg10 mi
5:55 pm88 °FSunny.6 mph55%29.99 "Hg10 mi
5:35 pm89 °FSunny.7 mph54%30.00 "Hg10 mi
5:15 pm89 °FSunny.6 mph54%30.00 "Hg10 mi
4:55 pm91 °FSunny.7 mph50%30.00 "Hg10 mi
4:35 pm91 °FScattered clouds.8 mph48%30.00 "Hg10 mi
4:15 pm92 °FScattered clouds.7 mph46%30.00 "Hg10 mi
3:55 pm94 °FScattered clouds.15 mph44%30.00 "Hg10 mi
3:35 pm94 °FScattered clouds.12 mph45%30.01 "Hg10 mi
3:15 pm94 °FSunny.12 mph45%30.02 "Hg10 mi
2:55 pm94 °FSunny.10 mph46%30.03 "Hg10 mi
2:35 pm93 °FSunny.13 mph46%30.04 "Hg10 mi
2:15 pm92 °FScattered clouds.13 mph46%30.05 "Hg10 mi
1:55 pm92 °FScattered clouds.16 mph47%30.05 "Hg10 mi
1:35 pm92 °FSunny.15 mph49%30.06 "Hg10 mi
1:15 pm92 °FSunny.12 mph48%30.07 "Hg10 mi
12:35 pm91 °FSunny.10 mph50%30.08 "Hg10 mi
12:15 pm90 °FSunny.12 mph51%30.08 "Hg10 mi
11:55 am89 °FSunny.10 mph56%30.08 "Hg10 mi
11:35 am88 °FSunny.12 mph58%30.09 "Hg10 mi
11:15 am88 °FSunny.9 mph61%30.09 "Hg10 mi
10:55 am88 °FSunny.9 mph60%30.09 "Hg10 mi
10:35 am88 °FSunny.7 mph61%30.08 "Hg10 mi
9:55 am84 °FSunny.5 mph76%30.09 "Hg10 mi
9:35 am83 °FSunny.No wind77%30.09 "Hg10 mi
9:15 am82 °FSunny.6 mph80%30.09 "Hg10 mi
8:55 am81 °FSunny.6 mph83%30.09 "Hg10 mi
8:35 am80 °FSunny.6 mph88%30.09 "Hg10 mi
8:15 am78 °FSunny.5 mph96%30.09 "Hg10 mi
7:55 am76 °FSunny.No wind100%30.08 "Hg10 mi
7:35 am75 °FSunny.No wind100%30.08 "Hg10 mi
6:55 am72 °FSunny.No wind100%30.08 "Hg10 mi
6:35 am72 °FSunny.No wind100%30.08 "Hg10 mi
6:15 am73 °FClear.No wind100%30.08 "Hg10 mi
5:55 am73 °FClear.No wind100%30.08 "Hg10 mi
5:35 am73 °FClear.No wind100%30.07 "Hg10 mi
4:55 am74 °FClear.No wind100%30.06 "Hg10 mi
4:35 am74 °FClear.No wind100%30.06 "Hg10 mi
4:15 am74 °FClear.No wind100%30.06 "Hg7 mi
3:55 am74 °FClear.No wind100%30.06 "Hg10 mi
3:35 am74 °FClear.No wind100%30.06 "Hg10 mi
3:15 am75 °FClear.No wind100%30.07 "Hg7 mi
2:55 am74 °FClear.No wind100%30.07 "Hg7 mi
2:35 am76 °FClear.No wind100%30.08 "Hg10 mi
1:55 am76 °FClear.No wind100%30.09 "Hg10 mi
1:35 am76 °FClear.No wind100%30.09 "Hg10 mi
1:15 am76 °FClear.No wind100%30.10 "Hg10 mi
12:55 am77 °FClear.No wind100%30.10 "Hg10 mi
12:35 am77 °FClear.No wind100%30.09 "Hg10 mi
12:15 am77 °FClear.No wind100%30.09 "Hg10 mi
11:55 pm
Tue, Jul 16
77 °FClear.No wind100%30.10 "Hg10 mi
11:35 pm78 °FClear.No wind100%30.10 "Hg10 mi
11:15 pm79 °FClear.No wind98%30.10 "Hg10 mi
Weather by CustomWeather, © 2019

See weather overview